Home   Weather   Reading   Past weeks

Flag for United Kingdom Past Weather in Reading, England, United Kingdom — Yesterday and Last 2 Weeks

Now
36 °F

Clear.


Feels Like: 30 °F
Forecast: 33 / 50 °F
Wind: 7 mph from West

Location: Benson

Current Time: Apr 25, 2017 at 3:56:39 am

Latest Report: Apr 25, 2017 at 2:50 am


Visibility: 10 mi

Pressure: 29.92 "Hg

Humidity: 65%

Dew Point: 25 °F

Location of ReadingLocation

Past Weather in Reading — Graph

°F

Reading Temperature Yesterday

Maximum temperature yesterday: 55 °F (at 2:50 pm)
Minimum temperature yesterday: 34 °F (at 4:50 am)
Average temperature yesterday: 45 °F

High & Low Weather Summary for the Past Weeks

 TemperatureHumidityPressure
High59 °F (Apr 11, 2:50 pm)100% (Apr 18, 1:50 am)30.63 "Hg (Apr 18, 1:50 am)
Low30 °F (Apr 18, 2:50 am)31% (Apr 19, 5:50 pm)29.89 "Hg (Apr 24, 4:50 pm)
Average48 °F71%30.26 "Hg
* Reported Apr 10 1:50 am — Apr 25 1:50 am, Reading, Weather by CustomWeather, © 2017

Note: Actual official high and low records may vary slightly from our data, if they occured in-between our weather recording intervals... More about our weather records

Advertising

Reading Weather History for the Previous 24 Hours

Scroll right to see more
 ConditionsComfort  
Time TempWeatherWind HumidityBarometerVisibility
1:50 am
Tue, Apr 25
37 °FClear.8 mph60%29.92 "HgN/A
12:50 am37 °FClear.10 mph56%29.95 "HgN/A
11:50 pm
Mon, Apr 24
39 °FClear.13 mph48%29.95 "Hg10 mi
10:50 pm41 °FClear.7 mph53%29.95 "Hg10 mi
9:50 pm43 °FClear.8 mph57%29.95 "Hg10 mi
8:50 pm46 °FPassing clouds.10 mph50%29.92 "HgN/A
7:50 pm48 °FPartly sunny.10 mph62%29.92 "HgN/A
6:50 pm48 °FBroken clouds.8 mph82%29.92 "HgN/A
5:50 pm50 °FBroken clouds.13 mph67%29.92 "HgN/A
4:50 pm54 °FPartly sunny.12 mph58%29.89 "HgN/A
3:50 pm55 °FPartly sunny.13 mph59%29.92 "HgN/A
2:50 pm55 °FPartly sunny.9 mph67%29.95 "HgN/A
1:50 pm54 °FLight rain. Broken clouds.15 mph72%29.98 "HgN/A
12:50 pm54 °FBroken clouds.7 mph72%29.98 "HgN/A
11:50 am52 °FBroken clouds.5 mph77%30.01 "HgN/A
10:50 am52 °FPartly sunny.7 mph72%30.01 "HgN/A
9:50 am48 °FBroken clouds.1 mph87%30.04 "HgN/A
8:50 am46 °FPartly sunny.2 mph82%30.04 "HgN/A
7:50 am43 °FPartly sunny.1 mph93%30.07 "HgN/A
6:50 am36 °FSunny.1 mph93%30.07 "Hg10 mi
5:50 am34 °FSunny.1 mph93%30.07 "Hg4 mi
4:50 am34 °FPassing clouds.2 mph93%30.09 "HgN/A
3:50 am36 °FPassing clouds.2 mph93%30.09 "HgN/A
Weather by CustomWeather, © 2017

See weather overviewHow to use our weather pages